DAL1262 KATL-KDTW

Flight info

Callsign DAL1262
Flight time 1h 43m
Altitude 37000
Route PADGT2 SMTTH Q67 HNN SUBWY HTROD2
Aircraft A21N/M-SDE3FGHIRWY/LB1

Departure

Time 2026-05-07 23:52
Airport Hartsfield Jackson Atlanta International Airport (KATL)

Arrival

Time 2026-05-08 01:35
Airport Detroit Metropolitan Wayne County Airport (KDTW)
Time Latitude Longitude Altitude Speed Heading
2026-05-07 23:39 33.64270 -84.43196 1023 ft 0 kts 270°
2026-05-07 23:40 33.64269 -84.43185 1023 ft 2 kts 275°
2026-05-07 23:40 33.64268 -84.43168 1023 ft 2 kts 278°
2026-05-07 23:40 33.64265 -84.43150 1023 ft 2 kts 288°
2026-05-07 23:41 33.64261 -84.43139 1023 ft 0 kts 293°
2026-05-07 23:41 33.64260 -84.43136 1023 ft 0 kts 295°
2026-05-07 23:42 33.64261 -84.43137 1023 ft 0 kts 298°
2026-05-07 23:42 33.64263 -84.43139 1023 ft 0 kts 328°
2026-05-07 23:42 33.64288 -84.43140 1023 ft 6 kts
2026-05-07 23:43 33.64338 -84.43136 1023 ft 7 kts
2026-05-07 23:43 33.64376 -84.43133 1023 ft 0 kts
2026-05-07 23:44 33.64391 -84.43131 1023 ft 4 kts
2026-05-07 23:45 33.64436 -84.43115 1023 ft 8 kts 34°
2026-05-07 23:45 33.64458 -84.43050 1023 ft 9 kts 89°
2026-05-07 23:45 33.64459 -84.42947 1023 ft 13 kts 90°
2026-05-07 23:45 33.64460 -84.42834 1023 ft 13 kts 89°
2026-05-07 23:46 33.64466 -84.42719 1023 ft 13 kts 85°
2026-05-07 23:46 33.64468 -84.42596 1021 ft 15 kts 89°
2026-05-07 23:46 33.64468 -84.42454 1017 ft 18 kts 90°
2026-05-07 23:46 33.64469 -84.42296 1014 ft 19 kts 81°
2026-05-07 23:47 33.64523 -84.42150 1013 ft 19 kts 64°
2026-05-07 23:47 33.64540 -84.41991 1011 ft 20 kts 89°
2026-05-07 23:47 33.64541 -84.41820 1008 ft 21 kts 90°
2026-05-07 23:47 33.64540 -84.41644 1008 ft 20 kts 90°
2026-05-07 23:48 33.64541 -84.41469 1012 ft 22 kts 90°
2026-05-07 23:48 33.64540 -84.41293 1015 ft 19 kts 90°
2026-05-07 23:48 33.64540 -84.41139 1019 ft 17 kts 91°
2026-05-07 23:48 33.64540 -84.41005 1022 ft 15 kts 90°
2026-05-07 23:49 33.64540 -84.40886 1025 ft 12 kts 90°
2026-05-07 23:49 33.64541 -84.40794 1029 ft 9 kts 88°
2026-05-07 23:49 33.64545 -84.40730 1031 ft 6 kts 82°
2026-05-07 23:49 33.64551 -84.40685 1033 ft 4 kts 81°
2026-05-07 23:50 33.64558 -84.40637 1035 ft 6 kts 76°
2026-05-07 23:50 33.64576 -84.40595 1036 ft 6 kts 49°
2026-05-07 23:50 33.64624 -84.40569 1036 ft 8 kts
2026-05-07 23:50 33.64675 -84.40589 1036 ft 8 kts 290°
2026-05-07 23:51 33.64677 -84.40651 1034 ft 9 kts 271°
2026-05-07 23:51 33.64677 -84.41016 1022 ft 82 kts 270°
2026-05-07 23:51 33.64676 -84.41983 1011 ft 146 kts 270°
2026-05-07 23:51 33.64674 -84.43322 1330 ft 169 kts 271°
2026-05-07 23:52 33.64642 -84.44743 1997 ft 173 kts 271°
2026-05-07 23:52 33.64615 -84.46149 2795 ft 169 kts 278°
2026-05-07 23:52 33.64977 -84.47463 3282 ft 172 kts 298°
2026-05-07 23:52 33.65577 -84.48795 3643 ft 188 kts 299°
2026-05-07 23:53 33.66202 -84.50230 3991 ft 205 kts 297°
2026-05-07 23:53 33.66871 -84.51865 4280 ft 228 kts 296°
2026-05-07 23:53 33.67564 -84.53625 4731 ft 243 kts 295°
2026-05-07 23:53 33.68287 -84.55492 5408 ft 248 kts 296°
2026-05-07 23:54 33.69322 -84.57123 6148 ft 253 kts 319°
2026-05-07 23:54 33.70919 -84.58037 6921 ft 263 kts 342°
2026-05-07 23:54 33.72765 -84.58147 7675 ft 271 kts 354°
2026-05-07 23:54 33.74666 -84.58110 8396 ft 274 kts 353°
2026-05-07 23:55 33.76574 -84.58087 9090 ft 278 kts 352°
2026-05-07 23:55 33.78502 -84.58065 9796 ft 280 kts 351°
2026-05-07 23:55 33.80473 -84.57958 10465 ft 288 kts 356°
2026-05-07 23:55 33.82482 -84.57536 11067 ft 301 kts
2026-05-07 23:56 33.84563 -84.56841 11424 ft 318 kts
2026-05-07 23:56 33.86688 -84.56062 11931 ft 326 kts
2026-05-07 23:56 33.88864 -84.55242 12555 ft 330 kts
2026-05-07 23:56 33.91060 -84.54416 13145 ft 333 kts
2026-05-07 23:57 33.93277 -84.53589 13747 ft 336 kts
2026-05-07 23:57 33.95518 -84.52757 14311 ft 340 kts
2026-05-07 23:57 33.97779 -84.51919 14892 ft 342 kts
2026-05-07 23:57 34.00071 -84.51072 15417 ft 347 kts
2026-05-07 23:58 34.02421 -84.50206 15920 ft 352 kts
2026-05-07 23:58 34.04762 -84.49344 16449 ft 355 kts
2026-05-07 23:58 34.07125 -84.48467 16999 ft 357 kts
2026-05-07 23:58 34.09491 -84.47589 17490 ft 360 kts
2026-05-07 23:59 34.11902 -84.46699 17989 ft 363 kts
2026-05-07 23:59 34.14314 -84.45808 18460 ft 366 kts
2026-05-07 23:59 34.16780 -84.44897 18948 ft 369 kts
2026-05-07 23:59 34.19250 -84.43981 19408 ft 373 kts
2026-05-08 00:00 34.21732 -84.43059 19878 ft 375 kts
2026-05-08 00:00 34.24223 -84.42133 20320 ft 378 kts
2026-05-08 00:00 34.26743 -84.41198 20763 ft 382 kts
2026-05-08 00:00 34.29285 -84.40288 21226 ft 380 kts
2026-05-08 00:01 34.31857 -84.39559 21659 ft 378 kts 359°
2026-05-08 00:01 34.34432 -84.38931 22082 ft 379 kts 358°
2026-05-08 00:01 34.37033 -84.38314 22483 ft 382 kts 358°
2026-05-08 00:01 34.39646 -84.37693 22861 ft 385 kts 358°
2026-05-08 00:02 34.42298 -84.37061 23258 ft 388 kts 358°
2026-05-08 00:02 34.44936 -84.36431 23594 ft 392 kts 358°
2026-05-08 00:02 34.47631 -84.35781 23984 ft 394 kts 358°
2026-05-08 00:02 34.50326 -84.35126 24433 ft 395 kts 357°
2026-05-08 00:03 34.53015 -84.34476 24795 ft 397 kts 357°
2026-05-08 00:03 34.55717 -84.33823 25176 ft 399 kts 357°
2026-05-08 00:03 34.58435 -84.33167 25496 ft 402 kts 357°
2026-05-08 00:03 34.61220 -84.32496 25812 ft 405 kts 356°
2026-05-08 00:04 34.63982 -84.31826 26160 ft 407 kts 356°
2026-05-08 00:04 34.66762 -84.31150 26493 ft 409 kts 356°
2026-05-08 00:04 34.69554 -84.30472 26862 ft 410 kts 356°
2026-05-08 00:04 34.72361 -84.29792 27159 ft 413 kts 356°
2026-05-08 00:05 34.75182 -84.29109 27477 ft 415 kts 356°
2026-05-08 00:05 34.78006 -84.28419 27824 ft 416 kts 355°
2026-05-08 00:05 34.80880 -84.27722 28071 ft 420 kts 355°
2026-05-08 00:05 34.83722 -84.27028 28384 ft 421 kts 355°
2026-05-08 00:06 34.86618 -84.26327 28633 ft 425 kts 355°
2026-05-08 00:06 34.89543 -84.25616 28925 ft 427 kts 354°
2026-05-08 00:06 34.92434 -84.24908 29243 ft 428 kts 354°
2026-05-08 00:06 34.95381 -84.24187 29587 ft 429 kts 354°
2026-05-08 00:07 34.98289 -84.23479 29881 ft 431 kts 354°
2026-05-08 00:07 35.01244 -84.22760 30094 ft 436 kts 354°
2026-05-08 00:07 35.04263 -84.22029 30313 ft 440 kts 354°
2026-05-08 00:07 35.07241 -84.21304 30599 ft 442 kts 355°
2026-05-08 00:08 35.10254 -84.20564 30950 ft 442 kts 355°
2026-05-08 00:08 35.13315 -84.19813 31204 ft 445 kts 355°
2026-05-08 00:08 35.16352 -84.19073 31339 ft 451 kts 355°
2026-05-08 00:08 35.19434 -84.18317 31596 ft 453 kts 355°
2026-05-08 00:09 35.22526 -84.17552 31942 ft 453 kts 355°
2026-05-08 00:09 35.25608 -84.16792 32150 ft 456 kts 355°
2026-05-08 00:09 35.28722 -84.16028 32313 ft 460 kts 355°
2026-05-08 00:09 35.31864 -84.15253 32589 ft 462 kts 355°
2026-05-08 00:10 35.35025 -84.14474 32834 ft 463 kts 355°
2026-05-08 00:10 35.38180 -84.13693 33167 ft 463 kts 355°
2026-05-08 00:10 35.41320 -84.12915 33500 ft 462 kts 355°
2026-05-08 00:10 35.44464 -84.12134 33827 ft 462 kts 355°
2026-05-08 00:11 35.47606 -84.11353 34174 ft 461 kts 355°
2026-05-08 00:11 35.50756 -84.10571 34586 ft 458 kts 354°
2026-05-08 00:11 35.53847 -84.09798 35071 ft 453 kts 354°
2026-05-08 00:11 35.56930 -84.09032 35443 ft 450 kts 354°
2026-05-08 00:12 35.59978 -84.08280 35680 ft 451 kts 354°
2026-05-08 00:12 35.63069 -84.07519 35955 ft 450 kts 354°
2026-05-08 00:12 35.66122 -84.06763 36222 ft 450 kts 354°
2026-05-08 00:12 35.69201 -84.05995 36477 ft 449 kts 354°
2026-05-08 00:13 35.72251 -84.05240 36669 ft 450 kts 354°
2026-05-08 00:13 35.75325 -84.04476 36850 ft 451 kts 354°
2026-05-08 00:13 35.78412 -84.03711 36955 ft 453 kts 354°
2026-05-08 00:13 35.81485 -84.02947 37003 ft 454 kts 354°
2026-05-08 00:14 35.87688 -84.01099 37010 ft 467 kts 360°
2026-05-08 00:14 35.93914 -83.98250 37006 ft 484 kts
2026-05-08 00:15 35.99983 -83.94361 37013 ft 498 kts 14°
2026-05-08 00:15 36.05983 -83.90031 37010 ft 499 kts 15°
2026-05-08 00:16 36.11952 -83.85711 37011 ft 498 kts 14°
2026-05-08 00:16 36.17948 -83.81407 37011 ft 499 kts 14°
2026-05-08 00:17 36.23929 -83.77113 37011 ft 500 kts 14°
2026-05-08 00:17 36.29913 -83.72813 37008 ft 498 kts 14°
2026-05-08 00:18 36.35908 -83.68497 37008 ft 497 kts 14°
2026-05-08 00:18 36.41872 -83.64200 37012 ft 499 kts 14°
2026-05-08 00:19 36.47869 -83.59863 37011 ft 498 kts 14°
2026-05-08 00:19 36.53828 -83.55547 37009 ft 497 kts 14°
2026-05-08 00:20 36.59848 -83.51188 37009 ft 499 kts 14°
2026-05-08 00:20 36.65799 -83.46860 37011 ft 499 kts 14°
2026-05-08 00:21 36.71770 -83.42512 37011 ft 498 kts 14°
2026-05-08 00:21 36.77746 -83.38154 37012 ft 498 kts 14°
2026-05-08 00:22 36.83741 -83.33760 37002 ft 497 kts 15°
2026-05-08 00:22 36.89673 -83.29406 37008 ft 500 kts 15°
2026-05-08 00:23 36.95689 -83.24979 37011 ft 502 kts 15°
2026-05-08 00:23 37.01690 -83.20549 37010 ft 502 kts 15°
2026-05-08 00:24 37.07662 -83.16135 37003 ft 499 kts 15°
2026-05-08 00:24 37.13618 -83.11732 37009 ft 499 kts 15°
2026-05-08 00:25 37.19610 -83.07293 37000 ft 502 kts 15°
2026-05-08 00:25 37.25602 -83.02867 37007 ft 496 kts 13°
2026-05-08 00:26 37.31641 -82.98848 37007 ft 492 kts 11°
2026-05-08 00:26 37.37757 -82.94873 37008 ft 494 kts 12°
2026-05-08 00:27 37.43816 -82.90900 37007 ft 494 kts 12°
2026-05-08 00:27 37.49883 -82.86898 36839 ft 492 kts 12°
2026-05-08 00:28 37.52892 -82.84912 36949 ft 491 kts 12°
2026-05-08 00:28 37.55921 -82.82922 36953 ft 493 kts 12°
2026-05-08 00:28 37.62005 -82.78907 37006 ft 494 kts 12°
2026-05-08 00:29 37.68091 -82.74886 37020 ft 496 kts 12°
2026-05-08 00:29 37.74188 -82.70840 37024 ft 494 kts 12°
2026-05-08 00:30 37.80232 -82.66823 37022 ft 492 kts 13°
2026-05-08 00:30 37.86278 -82.62805 37021 ft 492 kts 13°
2026-05-08 00:31 37.92329 -82.58780 37022 ft 494 kts 13°
2026-05-08 00:31 37.98423 -82.54706 37024 ft 494 kts 13°
2026-05-08 00:32 38.04495 -82.50640 37042 ft 494 kts 13°
2026-05-08 00:32 38.10514 -82.46603 37020 ft 491 kts 13°
2026-05-08 00:33 38.16576 -82.42535 37013 ft 491 kts 13°
2026-05-08 00:33 38.22625 -82.38463 37003 ft 491 kts 13°
2026-05-08 00:34 38.28646 -82.34404 37003 ft 493 kts 14°
2026-05-08 00:34 38.34716 -82.30305 36996 ft 494 kts 14°
2026-05-08 00:35 38.40752 -82.26216 36999 ft 493 kts 14°
2026-05-08 00:35 38.46816 -82.22098 36999 ft 492 kts 14°
2026-05-08 00:36 38.52872 -82.17990 36989 ft 495 kts 14°
2026-05-08 00:36 38.58925 -82.13864 36985 ft 493 kts 14°
2026-05-08 00:37 38.64951 -82.09753 36989 ft 493 kts 15°
2026-05-08 00:38 38.74227 -82.04830 36981 ft 463 kts 359°
2026-05-08 00:38 38.77346 -82.04079 37065 ft 451 kts 352°
2026-05-08 00:38 38.80416 -82.03753 37029 ft 438 kts 346°
2026-05-08 00:38 38.83409 -82.03818 37008 ft 427 kts 341°
2026-05-08 00:39 38.86330 -82.04197 37002 ft 421 kts 338°
2026-05-08 00:39 38.92099 -82.05139 36995 ft 421 kts 338°
2026-05-08 00:40 38.97910 -82.06087 36996 ft 422 kts 338°
2026-05-08 00:40 39.03756 -82.07024 36997 ft 422 kts 338°
2026-05-08 00:41 39.09543 -82.07945 37001 ft 422 kts 338°
2026-05-08 00:41 39.15386 -82.08873 37008 ft 420 kts 339°
2026-05-08 00:42 39.21170 -82.09791 37013 ft 421 kts 338°
2026-05-08 00:42 39.26979 -82.10719 37008 ft 422 kts 339°
2026-05-08 00:43 39.32829 -82.11652 37010 ft 422 kts 339°
2026-05-08 00:43 39.38634 -82.12579 37003 ft 424 kts 339°
2026-05-08 00:44 39.44477 -82.13511 37001 ft 421 kts 339°
2026-05-08 00:44 39.50313 -82.14449 36998 ft 424 kts 339°
2026-05-08 00:45 39.56134 -82.15386 36994 ft 424 kts 339°
2026-05-08 00:45 39.61995 -82.16329 36984 ft 422 kts 339°
2026-05-08 00:46 39.67801 -82.17267 36983 ft 423 kts 339°
2026-05-08 00:46 39.73636 -82.18204 36981 ft 424 kts 339°
2026-05-08 00:47 39.79517 -82.19152 36977 ft 424 kts 339°
2026-05-08 00:47 39.85331 -82.20090 36979 ft 423 kts 339°
2026-05-08 00:48 39.91163 -82.21034 36976 ft 423 kts 339°
2026-05-08 00:48 39.97010 -82.21984 36826 ft 423 kts 340°
2026-05-08 00:48 39.99903 -82.22452 36489 ft 421 kts 339°
2026-05-08 00:49 40.02824 -82.22922 36153 ft 418 kts 339°
2026-05-08 00:49 40.05691 -82.23386 35820 ft 414 kts 339°
2026-05-08 00:49 40.08546 -82.23848 35488 ft 411 kts 339°
2026-05-08 00:49 40.11347 -82.24305 35162 ft 410 kts 339°
2026-05-08 00:50 40.14209 -82.24776 34819 ft 410 kts 339°
2026-05-08 00:50 40.17020 -82.25239 34485 ft 411 kts 339°
2026-05-08 00:50 40.19833 -82.25702 34155 ft 411 kts 339°
2026-05-08 00:50 40.22694 -82.26171 33820 ft 412 kts 339°
2026-05-08 00:51 40.25514 -82.26635 33503 ft 412 kts 339°
2026-05-08 00:51 40.28350 -82.27098 33193 ft 411 kts 339°
2026-05-08 00:51 40.31175 -82.27561 32881 ft 408 kts 339°
2026-05-08 00:51 40.33981 -82.28020 32568 ft 406 kts 339°
2026-05-08 00:52 40.36778 -82.28480 32217 ft 405 kts 339°
2026-05-08 00:52 40.39536 -82.28934 31863 ft 402 kts 339°
2026-05-08 00:52 40.42298 -82.29388 31506 ft 398 kts 338°
2026-05-08 00:52 40.45043 -82.29843 31146 ft 396 kts 338°
2026-05-08 00:53 40.47751 -82.30411 30787 ft 389 kts 335°
2026-05-08 00:53 40.50341 -82.31143 30433 ft 382 kts 332°
2026-05-08 00:53 40.52883 -82.32050 30088 ft 375 kts 329°
2026-05-08 00:53 40.55360 -82.33061 29980 ft 373 kts 328°
2026-05-08 00:54 40.57813 -82.34089 29973 ft 372 kts 328°
2026-05-08 00:54 40.62772 -82.36164 29972 ft 373 kts 328°
2026-05-08 00:55 40.67678 -82.38218 29969 ft 373 kts 328°
2026-05-08 00:55 40.72624 -82.40289 29969 ft 372 kts 328°
2026-05-08 00:56 40.77632 -82.42404 29977 ft 389 kts 328°
2026-05-08 00:56 40.82904 -82.44633 29978 ft 406 kts 329°
2026-05-08 00:57 40.88393 -82.46938 29981 ft 421 kts 329°
2026-05-08 00:57 40.94054 -82.49316 29974 ft 433 kts 329°
2026-05-08 00:58 40.99837 -82.51743 29977 ft 439 kts 329°
2026-05-08 00:58 41.05639 -82.54189 29973 ft 437 kts 330°
2026-05-08 00:59 41.11411 -82.56681 29980 ft 437 kts 329°
2026-05-08 00:59 41.17157 -82.59241 29979 ft 436 kts 330°
2026-05-08 01:00 41.22907 -82.61807 29959 ft 435 kts 330°
2026-05-08 01:00 41.25771 -82.63077 29772 ft 428 kts 330°
2026-05-08 01:00 41.28488 -82.64445 29453 ft 411 kts 326°
2026-05-08 01:00 41.31028 -82.66031 29020 ft 398 kts 322°
2026-05-08 01:01 41.33424 -82.67796 28470 ft 392 kts 320°
2026-05-08 01:01 41.35758 -82.69586 27897 ft 388 kts 320°
2026-05-08 01:01 41.38086 -82.71382 27352 ft 385 kts 320°
2026-05-08 01:01 41.40384 -82.73161 26778 ft 382 kts 321°
2026-05-08 01:02 41.42651 -82.74918 26256 ft 379 kts 322°
2026-05-08 01:02 41.44926 -82.76676 25680 ft 377 kts 322°
2026-05-08 01:02 41.47165 -82.78404 25139 ft 374 kts 322°
2026-05-08 01:02 41.49398 -82.80133 24601 ft 371 kts 323°
2026-05-08 01:03 41.51628 -82.81860 24057 ft 368 kts 323°
2026-05-08 01:03 41.53831 -82.83561 23497 ft 364 kts 323°
2026-05-08 01:03 41.56002 -82.85240 22737 ft 367 kts 324°
2026-05-08 01:03 41.58222 -82.86969 21847 ft 380 kts 324°
2026-05-08 01:04 41.60545 -82.88779 21369 ft 389 kts 325°
2026-05-08 01:04 41.62872 -82.90581 20919 ft 379 kts 325°
2026-05-08 01:04 41.65108 -82.92317 20365 ft 369 kts 324°
2026-05-08 01:04 41.67199 -82.94149 19889 ft 358 kts 320°
2026-05-08 01:05 41.69136 -82.96149 19511 ft 347 kts 316°
2026-05-08 01:05 41.70973 -82.98230 19036 ft 341 kts 316°
2026-05-08 01:05 41.72739 -83.00261 18586 ft 335 kts 315°
2026-05-08 01:05 41.74490 -83.02278 18142 ft 330 kts 315°
2026-05-08 01:06 41.76217 -83.04269 17713 ft 325 kts 315°
2026-05-08 01:06 41.77918 -83.06232 17294 ft 319 kts 315°
2026-05-08 01:06 41.79578 -83.08149 16890 ft 314 kts 315°
2026-05-08 01:06 41.81213 -83.10040 16471 ft 310 kts 315°
2026-05-08 01:07 41.82853 -83.11936 15973 ft 308 kts 314°
2026-05-08 01:07 41.84460 -83.13799 15468 ft 307 kts 314°
2026-05-08 01:07 41.86068 -83.15643 15030 ft 304 kts 315°
2026-05-08 01:07 41.87652 -83.17407 14989 ft 291 kts 315°
2026-05-08 01:08 41.89219 -83.19153 14965 ft 290 kts 315°
2026-05-08 01:08 41.90773 -83.20890 14704 ft 292 kts 315°
2026-05-08 01:08 41.92329 -83.22631 14228 ft 292 kts 315°
2026-05-08 01:08 41.93871 -83.24358 13805 ft 291 kts 315°
2026-05-08 01:09 41.95403 -83.26078 13394 ft 289 kts 315°
2026-05-08 01:09 41.96943 -83.27808 12987 ft 287 kts 315°
2026-05-08 01:09 41.98459 -83.29510 12589 ft 285 kts 315°
2026-05-08 01:09 41.99984 -83.31225 12205 ft 282 kts 315°
2026-05-08 01:10 42.01560 -83.32695 12002 ft 279 kts 332°
2026-05-08 01:10 42.03481 -83.33123 11988 ft 281 kts 356°
2026-05-08 01:10 42.05361 -83.32415 11994 ft 290 kts 20°
2026-05-08 01:10 42.07111 -83.31051 11999 ft 289 kts 24°
2026-05-08 01:11 42.08819 -83.29649 11995 ft 286 kts 24°
2026-05-08 01:11 42.10520 -83.28281 11993 ft 284 kts 23°
2026-05-08 01:11 42.12220 -83.26941 11995 ft 283 kts 23°
2026-05-08 01:11 42.13923 -83.25607 11994 ft 282 kts 23°
2026-05-08 01:12 42.15609 -83.24287 11997 ft 282 kts 22°
2026-05-08 01:12 42.17301 -83.22963 11993 ft 282 kts 22°
2026-05-08 01:12 42.18974 -83.21649 11983 ft 274 kts 22°
2026-05-08 01:12 42.20605 -83.20368 11986 ft 271 kts 22°
2026-05-08 01:13 42.22238 -83.19090 11987 ft 271 kts 22°
2026-05-08 01:13 42.23882 -83.17847 11780 ft 272 kts 20°
2026-05-08 01:13 42.25559 -83.16657 11288 ft 275 kts 19°
2026-05-08 01:13 42.27254 -83.15484 10864 ft 276 kts 20°
2026-05-08 01:14 42.28959 -83.14300 10473 ft 277 kts 20°
2026-05-08 01:14 42.30683 -83.13094 10074 ft 277 kts 20°
2026-05-08 01:14 42.32397 -83.11892 9625 ft 279 kts 21°
2026-05-08 01:14 42.34094 -83.10698 9212 ft 279 kts 21°
2026-05-08 01:15 42.35817 -83.09482 8806 ft 279 kts 21°
2026-05-08 01:15 42.37535 -83.08269 8397 ft 280 kts 22°
2026-05-08 01:15 42.39278 -83.07036 7982 ft 280 kts 22°
2026-05-08 01:15 42.40997 -83.05820 7579 ft 280 kts 22°
2026-05-08 01:16 42.42709 -83.04607 7178 ft 280 kts 23°
2026-05-08 01:16 42.44432 -83.03386 6774 ft 280 kts 23°
2026-05-08 01:16 42.46188 -83.02299 6319 ft 277 kts
2026-05-08 01:16 42.48025 -83.02398 5994 ft 258 kts 333°
2026-05-08 01:17 42.49316 -83.03845 5969 ft 231 kts 296°
2026-05-08 01:17 42.49597 -83.05864 5980 ft 220 kts 264°
2026-05-08 01:17 42.49372 -83.07912 5987 ft 219 kts 264°
2026-05-08 01:17 42.49039 -83.09915 5977 ft 221 kts 247°
2026-05-08 01:18 42.48223 -83.11701 5988 ft 223 kts 238°
2026-05-08 01:18 42.47346 -83.13426 5987 ft 222 kts 239°
2026-05-08 01:18 42.46366 -83.15037 5957 ft 225 kts 225°
2026-05-08 01:18 42.45099 -83.16286 5742 ft 228 kts 216°
2026-05-08 01:19 42.43736 -83.17374 5437 ft 228 kts 214°
2026-05-08 01:19 42.42348 -83.18414 5132 ft 226 kts 213°
2026-05-08 01:19 42.40967 -83.19428 4832 ft 226 kts 212°
2026-05-08 01:19 42.39607 -83.20423 4534 ft 224 kts 212°
2026-05-08 01:20 42.38243 -83.21422 4236 ft 222 kts 212°
2026-05-08 01:20 42.36888 -83.22417 3941 ft 220 kts 212°
2026-05-08 01:20 42.35547 -83.23402 3653 ft 218 kts 212°
2026-05-08 01:20 42.34235 -83.24366 3466 ft 208 kts 212°
2026-05-08 01:21 42.32997 -83.25277 3149 ft 197 kts 212°
2026-05-08 01:21 42.31846 -83.26123 2853 ft 184 kts 212°
2026-05-08 01:21 42.30759 -83.26924 2587 ft 172 kts 212°
2026-05-08 01:21 42.29735 -83.27680 2342 ft 161 kts 212°
2026-05-08 01:22 42.28798 -83.28369 2154 ft 148 kts 213°
2026-05-08 01:22 42.27905 -83.29028 1981 ft 142 kts 213°
2026-05-08 01:22 42.27047 -83.29660 1793 ft 139 kts 213°
2026-05-08 01:22 42.26206 -83.30280 1613 ft 138 kts 213°
2026-05-08 01:23 42.25364 -83.30912 1408 ft 138 kts 213°
2026-05-08 01:23 42.24522 -83.31535 1235 ft 137 kts 212°
2026-05-08 01:23 42.23691 -83.32137 1049 ft 137 kts 211°
2026-05-08 01:23 42.22850 -83.32755 865 ft 136 kts 212°
2026-05-08 01:24 42.22019 -83.33371 694 ft 135 kts 211°
2026-05-08 01:24 42.21216 -83.33964 683 ft 132 kts 211°
2026-05-08 01:24 42.20414 -83.34579 1310 ft 135 kts 213°
2026-05-08 01:24 42.19609 -83.35197 2023 ft 137 kts 214°
2026-05-08 01:25 42.18763 -83.35767 2747 ft 137 kts 199°
2026-05-08 01:25 42.17802 -83.35645 3208 ft 149 kts 160°
2026-05-08 01:25 42.16965 -83.34593 3249 ft 191 kts 120°
2026-05-08 01:25 42.16736 -83.32726 3403 ft 217 kts 87°
2026-05-08 01:26 42.17007 -83.30679 3763 ft 230 kts 69°
2026-05-08 01:26 42.17829 -83.28722 3935 ft 245 kts 53°
2026-05-08 01:26 42.18829 -83.26859 3984 ft 245 kts 51°
2026-05-08 01:26 42.19818 -83.24998 3988 ft 245 kts 53°
2026-05-08 01:27 42.20779 -83.23083 3990 ft 245 kts 54°
2026-05-08 01:27 42.21791 -83.21265 3986 ft 243 kts 41°
2026-05-08 01:27 42.23088 -83.19791 3991 ft 241 kts 32°
2026-05-08 01:27 42.24481 -83.18581 3990 ft 240 kts 27°
2026-05-08 01:28 42.25929 -83.17459 3990 ft 239 kts 26°
2026-05-08 01:28 42.27375 -83.16360 3990 ft 239 kts 26°
2026-05-08 01:28 42.28840 -83.15247 3990 ft 239 kts 25°
2026-05-08 01:28 42.30284 -83.14151 3990 ft 239 kts 25°
2026-05-08 01:29 42.31735 -83.13054 3990 ft 239 kts 26°
2026-05-08 01:29 42.33235 -83.12104 3976 ft 235 kts
2026-05-08 01:29 42.34780 -83.12291 3754 ft 218 kts 328°
2026-05-08 01:29 42.35806 -83.13622 3547 ft 202 kts 297°
2026-05-08 01:30 42.36258 -83.15399 3505 ft 200 kts 279°
2026-05-08 01:30 42.36484 -83.17234 3499 ft 200 kts 279°
2026-05-08 01:30 42.36732 -83.19085 3494 ft 200 kts 280°
2026-05-08 01:30 42.36839 -83.20944 3473 ft 200 kts 257°
2026-05-08 01:31 42.36161 -83.22583 3494 ft 204 kts 227°
2026-05-08 01:31 42.35067 -83.23717 3555 ft 190 kts 216°
2026-05-08 01:31 42.33966 -83.24584 3305 ft 178 kts 213°
2026-05-08 01:31 42.32913 -83.25354 3059 ft 167 kts 212°
2026-05-08 01:32 42.31921 -83.26070 2836 ft 154 kts 213°
2026-05-08 01:32 42.31008 -83.26737 2665 ft 145 kts 213°
2026-05-08 01:32 42.30139 -83.27377 2471 ft 140 kts 213°
2026-05-08 01:32 42.29287 -83.28008 2292 ft 139 kts 213°
2026-05-08 01:33 42.28441 -83.28635 2111 ft 139 kts 212°
2026-05-08 01:33 42.27593 -83.29256 1926 ft 138 kts 212°
2026-05-08 01:33 42.26759 -83.29873 1735 ft 138 kts 212°
2026-05-08 01:33 42.25915 -83.30483 1516 ft 137 kts 212°
2026-05-08 01:34 42.25073 -83.31107 1320 ft 137 kts 212°
2026-05-08 01:34 42.24241 -83.31735 1156 ft 136 kts 212°
2026-05-08 01:34 42.23416 -83.32351 989 ft 136 kts 211°
2026-05-08 01:34 42.22574 -83.32964 805 ft 136 kts 210°
2026-05-08 01:35 42.21757 -83.33562 646 ft 134 kts 211°
2026-05-08 01:35 42.21047 -83.34086 635 ft 91 kts 209°
2026-05-08 01:35 42.20652 -83.34378 635 ft 45 kts 209°
2026-05-08 01:35 42.20425 -83.34542 635 ft 26 kts 209°
2026-05-08 01:36 42.20269 -83.34660 635 ft 25 kts 210°
2026-05-08 01:36 42.20188 -83.34802 635 ft 19 kts 266°
2026-05-08 01:36 42.20183 -83.34979 635 ft 18 kts 268°
2026-05-08 01:36 42.20177 -83.35150 635 ft 18 kts 268°